Location: Goettingen
(51.5300°N, 9.9433°E)
Time: 03:37:21
(UTC+02:00)

ISS - Pass Details

Date: 21 May 2018
Orbit: 402 x 407 km, 51.6° (Epoch: 23 May)

Event Time Altitude Azimuth Distance (km) Brightness Sun altitude
Rises 00:43:11 0° 256° (WSW) 2,316 0.0 -18.0°
Reaches altitude 10° 00:45:15 10° 256° (WSW) 1,458 -1.1 -18.0°
Maximum altitude 00:48:31 81° 169° (S) 413 -4.0 -18.1°
Drops below altitude 10° 00:51:47 10° 82° (E) 1,459 -1.0 -18.1°
Sets 00:53:52 0° 81° (E) 2,320 0.1 -18.2°
